UAL643 CYVR-KSFO

Flight info

Callsign UAL643
Flight time 1h 44m
Altitude 37000
Route FSR9/08R VIXOR DCT ELMAA Q1 ETCHY DCT MLBEC BDEGA4
Aircraft B752/M-SDE3FGHIM3RWXY/LB1

Departure

Time 2026-05-07 03:36
Airport Vancouver International Airport (CYVR)

Arrival

Time 2026-05-07 05:21
Airport San Francisco International Airport (KSFO)
Time Latitude Longitude Altitude Speed Heading
2026-05-07 03:14 49.19771 -123.17285 10 ft 0 kts 268°
2026-05-07 03:24 49.19771 -123.17268 10 ft 2 kts 268°
2026-05-07 03:24 49.19772 -123.17245 10 ft 2 kts 268°
2026-05-07 03:24 49.19770 -123.17223 10 ft 2 kts 296°
2026-05-07 03:24 49.19761 -123.17204 10 ft 2 kts 319°
2026-05-07 03:25 49.19748 -123.17193 10 ft 2 kts 342°
2026-05-07 03:25 49.19733 -123.17190 10 ft 2 kts
2026-05-07 03:25 49.19724 -123.17191 10 ft 0 kts
2026-05-07 03:25 49.19722 -123.17191 10 ft 0 kts
2026-05-07 03:26 49.19723 -123.17191 10 ft 0 kts
2026-05-07 03:28 49.19729 -123.17191 10 ft 3 kts
2026-05-07 03:28 49.19761 -123.17189 10 ft 5 kts
2026-05-07 03:28 49.19808 -123.17187 10 ft 7 kts
2026-05-07 03:28 49.19867 -123.17199 10 ft 10 kts 330°
2026-05-07 03:29 49.19915 -123.17306 10 ft 14 kts 282°
2026-05-07 03:29 49.19965 -123.17385 10 ft 5 kts 10°
2026-05-07 03:29 49.19992 -123.17406 10 ft 12 kts 306°
2026-05-07 03:29 49.20021 -123.17606 10 ft 21 kts 280°
2026-05-07 03:30 49.20047 -123.17831 10 ft 21 kts 280°
2026-05-07 03:30 49.20073 -123.18063 10 ft 22 kts 280°
2026-05-07 03:30 49.20099 -123.18291 10 ft 22 kts 279°
2026-05-07 03:30 49.20126 -123.18523 10 ft 22 kts 280°
2026-05-07 03:31 49.20149 -123.18730 10 ft 19 kts 280°
2026-05-07 03:31 49.20172 -123.18929 10 ft 16 kts 282°
2026-05-07 03:31 49.20128 -123.19032 10 ft 12 kts 189°
2026-05-07 03:31 49.20036 -123.19056 10 ft 14 kts 189°
2026-05-07 03:32 49.19931 -123.19083 10 ft 17 kts 190°
2026-05-07 03:32 49.19797 -123.19119 10 ft 21 kts 189°
2026-05-07 03:32 49.19658 -123.19156 10 ft 18 kts 190°
2026-05-07 03:32 49.19532 -123.19190 10 ft 18 kts 191°
2026-05-07 03:33 49.19418 -123.19220 10 ft 15 kts 189°
2026-05-07 03:33 49.19328 -123.19278 10 ft 13 kts 248°
2026-05-07 03:33 49.19312 -123.19400 10 ft 17 kts 259°
2026-05-07 03:33 49.19283 -123.19634 10 ft 23 kts 259°
2026-05-07 03:34 49.19253 -123.19885 10 ft 23 kts 260°
2026-05-07 03:34 49.19221 -123.20132 10 ft 23 kts 259°
2026-05-07 03:34 49.19192 -123.20367 10 ft 21 kts 259°
2026-05-07 03:34 49.19186 -123.20570 10 ft 18 kts 280°
2026-05-07 03:35 49.19206 -123.20760 10 ft 10 kts 268°
2026-05-07 03:35 49.19171 -123.20819 10 ft 7 kts 202°
2026-05-07 03:35 49.19089 -123.20843 10 ft 14 kts 189°
2026-05-07 03:35 49.19009 -123.20771 10 ft 11 kts 98°
2026-05-07 03:36 49.18993 -123.20634 10 ft 24 kts 100°
2026-05-07 03:36 49.18919 -123.19978 10 ft 99 kts 100°
2026-05-07 03:36 49.18761 -123.18603 19 ft 162 kts 101°
2026-05-07 03:36 49.18575 -123.16933 858 ft 161 kts 99°
2026-05-07 03:37 49.18347 -123.15256 1624 ft 172 kts 106°
2026-05-07 03:37 49.17891 -123.13380 2082 ft 205 kts 112°
2026-05-07 03:37 49.17277 -123.11266 2602 ft 236 kts 114°
2026-05-07 03:37 49.16576 -123.08842 3084 ft 261 kts 112°
2026-05-07 03:38 49.15856 -123.06329 4024 ft 263 kts 114°
2026-05-07 03:38 49.15111 -123.03713 4772 ft 275 kts 113°
2026-05-07 03:38 49.14312 -123.01118 5727 ft 275 kts 126°
2026-05-07 03:38 49.12928 -122.99049 6461 ft 285 kts 147°
2026-05-07 03:39 49.11100 -122.97897 7259 ft 288 kts 172°
2026-05-07 03:39 49.09140 -122.97850 8163 ft 285 kts 193°
2026-05-07 03:39 49.07197 -122.98535 8866 ft 292 kts 195°
2026-05-07 03:39 49.05200 -122.99140 9672 ft 296 kts 193°
2026-05-07 03:40 49.03176 -122.99681 10383 ft 303 kts 193°
2026-05-07 03:40 49.01031 -123.00220 10781 ft 324 kts 192°
2026-05-07 03:40 48.98745 -123.00764 11118 ft 343 kts 192°
2026-05-07 03:40 48.96307 -123.01332 11397 ft 363 kts 192°
2026-05-07 03:41 48.93774 -123.01910 11898 ft 373 kts 192°
2026-05-07 03:41 48.91214 -123.02488 12618 ft 376 kts 192°
2026-05-07 03:41 48.88604 -123.03078 13221 ft 382 kts 192°
2026-05-07 03:41 48.85950 -123.03677 13865 ft 386 kts 192°
2026-05-07 03:42 48.83308 -123.04272 14543 ft 389 kts 192°
2026-05-07 03:42 48.80592 -123.04883 15167 ft 394 kts 192°
2026-05-07 03:42 48.77868 -123.05496 15820 ft 397 kts 192°
2026-05-07 03:42 48.77276 -123.05628 15954 ft 398 kts 192°
2026-05-07 03:43 48.76261 -123.05856 16179 ft 400 kts 192°
2026-05-07 03:43 48.73432 -123.06490 16745 ft 405 kts 193°
2026-05-07 03:43 48.70634 -123.07117 17363 ft 409 kts 193°
2026-05-07 03:43 48.67792 -123.07753 17977 ft 414 kts 193°
2026-05-07 03:44 48.64961 -123.08385 18615 ft 418 kts 193°
2026-05-07 03:44 48.62085 -123.09027 19247 ft 421 kts 193°
2026-05-07 03:44 48.59139 -123.09685 19810 ft 426 kts 193°
2026-05-07 03:44 48.56202 -123.10339 20422 ft 430 kts 193°
2026-05-07 03:45 48.53258 -123.10993 20971 ft 433 kts 193°
2026-05-07 03:45 48.50271 -123.11657 21519 ft 437 kts 193°
2026-05-07 03:45 48.47221 -123.12334 22090 ft 440 kts 193°
2026-05-07 03:45 48.44198 -123.13004 22597 ft 444 kts 193°
2026-05-07 03:46 48.41126 -123.13684 23120 ft 447 kts 193°
2026-05-07 03:46 48.38041 -123.14366 23625 ft 451 kts 194°
2026-05-07 03:46 48.34931 -123.15053 24187 ft 455 kts 194°
2026-05-07 03:46 48.31831 -123.15737 24749 ft 458 kts 194°
2026-05-07 03:47 48.28673 -123.16432 25290 ft 462 kts 194°
2026-05-07 03:47 48.25476 -123.17136 25855 ft 465 kts 194°
2026-05-07 03:47 48.22262 -123.17842 26326 ft 470 kts 194°
2026-05-07 03:47 48.19027 -123.18552 26874 ft 472 kts 194°
2026-05-07 03:48 48.15781 -123.19263 27343 ft 476 kts 194°
2026-05-07 03:48 48.12478 -123.19987 27845 ft 478 kts 194°
2026-05-07 03:48 48.09214 -123.20699 28325 ft 481 kts 194°
2026-05-07 03:48 48.05891 -123.21426 28769 ft 484 kts 194°
2026-05-07 03:49 48.02526 -123.22158 29254 ft 487 kts 194°
2026-05-07 03:49 47.99154 -123.22894 29627 ft 491 kts 194°
2026-05-07 03:49 47.95806 -123.23620 30135 ft 493 kts 194°
2026-05-07 03:49 47.92410 -123.24361 30461 ft 497 kts 194°
2026-05-07 03:50 47.88970 -123.25105 30879 ft 500 kts 194°
2026-05-07 03:50 47.85536 -123.25850 31199 ft 503 kts 194°
2026-05-07 03:50 47.82076 -123.26597 31707 ft 503 kts 194°
2026-05-07 03:50 47.78618 -123.27343 32149 ft 503 kts 194°
2026-05-07 03:51 47.75186 -123.28081 32726 ft 500 kts 194°
2026-05-07 03:51 47.71743 -123.28825 33049 ft 502 kts 194°
2026-05-07 03:51 47.68299 -123.29563 33653 ft 498 kts 194°
2026-05-07 03:51 47.64880 -123.30299 34093 ft 497 kts 195°
2026-05-07 03:52 47.61435 -123.31039 34472 ft 498 kts 194°
2026-05-07 03:52 47.58060 -123.31760 35133 ft 493 kts 195°
2026-05-07 03:52 47.54636 -123.32494 35538 ft 493 kts 195°
2026-05-07 03:52 47.51272 -123.33214 35917 ft 494 kts 194°
2026-05-07 03:53 47.47871 -123.33939 36423 ft 491 kts 195°
2026-05-07 03:53 47.44499 -123.34659 36722 ft 492 kts 195°
2026-05-07 03:53 47.41120 -123.35378 36963 ft 490 kts 194°
2026-05-07 03:54 47.34378 -123.36813 36964 ft 489 kts 194°
2026-05-07 03:54 47.27634 -123.38242 36973 ft 489 kts 194°
2026-05-07 03:55 47.20877 -123.39670 36973 ft 490 kts 194°
2026-05-07 03:55 47.14135 -123.40803 37032 ft 493 kts 186°
2026-05-07 03:56 47.07284 -123.40662 37023 ft 497 kts 184°
2026-05-07 03:56 47.00383 -123.40463 37025 ft 496 kts 184°
2026-05-07 03:57 46.93466 -123.40245 37028 ft 496 kts 184°
2026-05-07 03:57 46.86563 -123.40026 37020 ft 495 kts 184°
2026-05-07 03:58 46.81452 -123.39867 37027 ft 496 kts 184°
2026-05-07 03:58 46.74543 -123.39652 37033 ft 495 kts 184°
2026-05-07 03:59 46.67636 -123.39435 37031 ft 495 kts 184°
2026-05-07 03:59 46.60763 -123.39220 37025 ft 495 kts 184°
2026-05-07 04:00 46.53869 -123.39006 37026 ft 496 kts 183°
2026-05-07 04:00 46.46969 -123.38792 37025 ft 496 kts 183°
2026-05-07 04:01 46.40083 -123.38577 37158 ft 495 kts 183°
2026-05-07 04:01 46.33191 -123.38364 37162 ft 495 kts 183°
2026-05-07 04:02 46.26290 -123.38152 37164 ft 494 kts 183°
2026-05-07 04:02 46.19403 -123.37940 37165 ft 495 kts 183°
2026-05-07 04:03 46.12505 -123.37728 37159 ft 495 kts 183°
2026-05-07 04:03 46.05618 -123.37518 37154 ft 495 kts 183°
2026-05-07 04:04 45.98727 -123.37307 37151 ft 494 kts 183°
2026-05-07 04:04 45.91859 -123.37098 37154 ft 494 kts 183°
2026-05-07 04:05 45.84957 -123.36888 37144 ft 494 kts 182°
2026-05-07 04:05 45.78081 -123.36680 37148 ft 494 kts 182°
2026-05-07 04:06 45.71215 -123.36472 37143 ft 494 kts 182°
2026-05-07 04:06 45.64540 -123.36271 37149 ft 495 kts 182°
2026-05-07 04:07 45.57671 -123.36064 37158 ft 494 kts 182°
2026-05-07 04:07 45.50789 -123.35858 37154 ft 493 kts 182°
2026-05-07 04:08 45.43937 -123.35653 37152 ft 494 kts 182°
2026-05-07 04:08 45.37053 -123.35447 37158 ft 493 kts 182°
2026-05-07 04:09 45.30201 -123.35244 37145 ft 494 kts 182°
2026-05-07 04:09 45.23346 -123.35040 37148 ft 494 kts 182°
2026-05-07 04:10 45.16479 -123.34836 37154 ft 493 kts 182°
2026-05-07 04:10 45.09607 -123.34633 37150 ft 493 kts 182°
2026-05-07 04:11 45.02691 -123.34428 37148 ft 492 kts 182°
2026-05-07 04:11 44.95862 -123.34228 37148 ft 493 kts 182°
2026-05-07 04:12 44.88990 -123.34026 37141 ft 493 kts 181°
2026-05-07 04:12 44.82159 -123.33826 37149 ft 492 kts 181°
2026-05-07 04:13 44.75303 -123.33626 37144 ft 493 kts 181°
2026-05-07 04:13 44.68473 -123.33426 37146 ft 493 kts 181°
2026-05-07 04:14 44.61631 -123.33227 37157 ft 493 kts 181°
2026-05-07 04:14 44.54777 -123.33028 37158 ft 492 kts 181°
2026-05-07 04:15 44.47908 -123.32809 37161 ft 492 kts 181°
2026-05-07 04:15 44.41095 -123.32533 37165 ft 492 kts 181°
2026-05-07 04:16 44.34246 -123.32256 37161 ft 492 kts 180°
2026-05-07 04:16 44.27423 -123.31983 37162 ft 493 kts 180°
2026-05-07 04:17 44.20591 -123.31710 37165 ft 491 kts 180°
2026-05-07 04:17 44.13751 -123.31438 37167 ft 492 kts 180°
2026-05-07 04:18 44.06947 -123.31167 37170 ft 491 kts 180°
2026-05-07 04:18 44.00096 -123.30896 37169 ft 491 kts 180°
2026-05-07 04:19 43.93264 -123.30625 37172 ft 492 kts 180°
2026-05-07 04:19 43.86428 -123.30355 37153 ft 491 kts 180°
2026-05-07 04:20 43.79589 -123.30086 37157 ft 491 kts 180°
2026-05-07 04:20 43.72761 -123.29816 37155 ft 491 kts 180°
2026-05-07 04:21 43.62503 -123.29414 37151 ft 490 kts 180°
2026-05-07 04:21 43.55709 -123.29149 37153 ft 489 kts 180°
2026-05-07 04:22 43.48945 -123.28886 37159 ft 490 kts 180°
2026-05-07 04:22 43.42151 -123.28621 37160 ft 489 kts 180°
2026-05-07 04:23 43.35361 -123.28357 37165 ft 488 kts 180°
2026-05-07 04:23 43.28570 -123.28095 37172 ft 490 kts 180°
2026-05-07 04:24 43.21772 -123.27831 37172 ft 489 kts 180°
2026-05-07 04:24 43.14984 -123.27570 37174 ft 489 kts 180°
2026-05-07 04:25 43.08206 -123.27309 37167 ft 487 kts 180°
2026-05-07 04:25 43.01465 -123.27050 37163 ft 487 kts 180°
2026-05-07 04:26 42.94697 -123.26791 37165 ft 487 kts 180°
2026-05-07 04:26 42.87911 -123.26532 37160 ft 487 kts 179°
2026-05-07 04:27 42.81131 -123.26273 37167 ft 487 kts 179°
2026-05-07 04:27 42.74396 -123.26016 37171 ft 487 kts 179°
2026-05-07 04:28 42.67634 -123.25760 37176 ft 487 kts 179°
2026-05-07 04:28 42.60841 -123.25502 37176 ft 488 kts 179°
2026-05-07 04:29 42.54068 -123.25246 37180 ft 488 kts 179°
2026-05-07 04:29 42.47266 -123.24990 37182 ft 487 kts 179°
2026-05-07 04:30 42.40504 -123.24740 37176 ft 487 kts 179°
2026-05-07 04:30 42.33760 -123.24491 37175 ft 487 kts 179°
2026-05-07 04:31 42.26987 -123.24242 37173 ft 487 kts 179°
2026-05-07 04:31 42.20200 -123.23992 37181 ft 487 kts 179°
2026-05-07 04:32 42.13463 -123.23744 37197 ft 487 kts 179°
2026-05-07 04:32 42.06700 -123.23497 37208 ft 486 kts 179°
2026-05-07 04:33 41.99930 -123.23250 37234 ft 486 kts 179°
2026-05-07 04:33 41.93141 -123.23002 37241 ft 486 kts 179°
2026-05-07 04:34 41.86347 -123.22754 37238 ft 487 kts 179°
2026-05-07 04:34 41.79549 -123.22507 37248 ft 486 kts 179°
2026-05-07 04:35 41.72778 -123.22262 37250 ft 486 kts 179°
2026-05-07 04:35 41.66020 -123.22018 37242 ft 486 kts 179°
2026-05-07 04:36 41.59251 -123.21777 37248 ft 486 kts 179°
2026-05-07 04:36 41.52494 -123.21542 37248 ft 485 kts 179°
2026-05-07 04:37 41.45749 -123.21309 37248 ft 486 kts 179°
2026-05-07 04:37 41.39000 -123.21076 37241 ft 486 kts 179°
2026-05-07 04:38 41.32278 -123.20854 37230 ft 486 kts 179°
2026-05-07 04:38 41.25531 -123.20685 37228 ft 484 kts 179°
2026-05-07 04:39 41.18775 -123.20513 37234 ft 485 kts 179°
2026-05-07 04:39 41.12059 -123.20343 37239 ft 484 kts 180°
2026-05-07 04:40 41.05309 -123.20173 37249 ft 485 kts 180°
2026-05-07 04:40 40.98489 -123.20001 37257 ft 483 kts 180°
2026-05-07 04:41 40.91791 -123.19833 37238 ft 484 kts 180°
2026-05-07 04:41 40.85053 -123.19662 37215 ft 484 kts 180°
2026-05-07 04:42 40.78291 -123.19495 37212 ft 485 kts 180°
2026-05-07 04:42 40.71559 -123.19326 37202 ft 485 kts 180°
2026-05-07 04:43 40.64836 -123.19157 37206 ft 484 kts 180°
2026-05-07 04:43 40.58104 -123.18990 37211 ft 485 kts 180°
2026-05-07 04:44 40.51344 -123.18822 37216 ft 484 kts 180°
2026-05-07 04:44 40.44574 -123.18654 37231 ft 485 kts 180°
2026-05-07 04:45 40.37838 -123.18488 37252 ft 484 kts 180°
2026-05-07 04:45 40.31051 -123.18320 37264 ft 485 kts 180°
2026-05-07 04:46 40.24314 -123.18153 37287 ft 486 kts 181°
2026-05-07 04:46 40.17553 -123.17987 37277 ft 484 kts 181°
2026-05-07 04:47 40.10778 -123.17821 37263 ft 484 kts 181°
2026-05-07 04:47 40.04058 -123.17656 37248 ft 485 kts 181°
2026-05-07 04:48 39.97307 -123.17492 37237 ft 484 kts 181°
2026-05-07 04:48 39.90565 -123.17211 37221 ft 485 kts 180°
2026-05-07 04:49 39.83808 -123.16897 37201 ft 483 kts 180°
2026-05-07 04:49 39.77083 -123.16585 37192 ft 483 kts 180°
2026-05-07 04:50 39.70340 -123.16273 37177 ft 483 kts 180°
2026-05-07 04:50 39.63604 -123.15963 37178 ft 485 kts 180°
2026-05-07 04:51 39.56883 -123.15654 37177 ft 485 kts 180°
2026-05-07 04:51 39.50121 -123.15344 37164 ft 484 kts 180°
2026-05-07 04:52 39.43402 -123.15036 37167 ft 484 kts 180°
2026-05-07 04:52 39.36686 -123.14728 37157 ft 484 kts 180°
2026-05-07 04:53 39.29983 -123.14423 37143 ft 484 kts 180°
2026-05-07 04:53 39.23238 -123.14115 37136 ft 484 kts 180°
2026-05-07 04:54 39.16489 -123.13808 37135 ft 485 kts 180°
2026-05-07 04:54 39.09808 -123.12594 37150 ft 487 kts 164°
2026-05-07 04:55 39.03717 -123.08920 37164 ft 474 kts 149°
2026-05-07 04:55 39.00970 -123.06749 37052 ft 461 kts 149°
2026-05-07 04:55 38.98249 -123.04588 36305 ft 461 kts 149°
2026-05-07 04:56 38.95523 -123.02403 35448 ft 463 kts 148°
2026-05-07 04:56 38.93005 -123.00375 34663 ft 464 kts 148°
2026-05-07 04:56 38.90267 -122.98180 33790 ft 465 kts 150°
2026-05-07 04:56 38.87326 -122.96309 32977 ft 466 kts 159°
2026-05-07 04:57 38.84211 -122.95065 32230 ft 461 kts 167°
2026-05-07 04:57 38.81139 -122.94111 31533 ft 458 kts 167°
2026-05-07 04:57 38.78019 -122.93150 30867 ft 463 kts 167°
2026-05-07 04:57 38.74887 -122.92203 30232 ft 470 kts 167°
2026-05-07 04:58 38.71702 -122.91249 29584 ft 474 kts 167°
2026-05-07 04:58 38.68477 -122.90289 28798 ft 469 kts 167°
2026-05-07 04:58 38.65339 -122.89359 28102 ft 465 kts 167°
2026-05-07 04:58 38.62228 -122.88438 27804 ft 450 kts 167°
2026-05-07 04:59 38.59234 -122.87553 27142 ft 440 kts 167°
2026-05-07 04:59 38.56267 -122.86676 26556 ft 430 kts 166°
2026-05-07 04:59 38.53394 -122.85829 26000 ft 425 kts 166°
2026-05-07 04:59 38.50520 -122.84982 25457 ft 425 kts 166°
2026-05-07 05:00 38.47642 -122.84135 24910 ft 425 kts 166°
2026-05-07 05:00 38.44766 -122.83291 24364 ft 421 kts 166°
2026-05-07 05:00 38.41946 -122.82462 23837 ft 416 kts 166°
2026-05-07 05:00 38.39123 -122.81634 23306 ft 413 kts 166°
2026-05-07 05:01 38.36344 -122.80819 22783 ft 410 kts 166°
2026-05-07 05:01 38.33554 -122.80001 22249 ft 407 kts 166°
2026-05-07 05:01 38.30817 -122.79200 21719 ft 402 kts 166°
2026-05-07 05:01 38.28101 -122.78405 21190 ft 398 kts 166°
2026-05-07 05:02 38.25422 -122.77622 20668 ft 394 kts 166°
2026-05-07 05:02 38.22769 -122.76848 20174 ft 389 kts 166°
2026-05-07 05:02 38.20149 -122.76084 19671 ft 386 kts 166°
2026-05-07 05:02 38.17540 -122.75325 19179 ft 382 kts 166°
2026-05-07 05:03 38.14972 -122.74578 18688 ft 378 kts 166°
2026-05-07 05:03 38.12411 -122.73834 18195 ft 375 kts 166°
2026-05-07 05:03 38.09866 -122.73095 17700 ft 372 kts 166°
2026-05-07 05:03 38.07365 -122.72369 17215 ft 368 kts 166°
2026-05-07 05:04 38.04873 -122.71647 16743 ft 366 kts 166°
2026-05-07 05:04 38.02395 -122.70928 16205 ft 364 kts 166°
2026-05-07 05:04 37.99931 -122.70215 15657 ft 360 kts 166°
2026-05-07 05:04 37.97539 -122.69523 15159 ft 355 kts 166°
2026-05-07 05:05 37.95110 -122.68820 14672 ft 352 kts 166°
2026-05-07 05:05 37.92740 -122.68135 14210 ft 350 kts 166°
2026-05-07 05:05 37.90424 -122.67229 13734 ft 348 kts 154°
2026-05-07 05:05 37.88402 -122.65593 13291 ft 345 kts 140°
2026-05-07 05:06 37.86553 -122.63665 12846 ft 344 kts 140°
2026-05-07 05:06 37.84713 -122.61750 12388 ft 341 kts 139°
2026-05-07 05:06 37.82903 -122.59849 11937 ft 337 kts 139°
2026-05-07 05:06 37.81137 -122.57987 11582 ft 333 kts 139°
2026-05-07 05:07 37.79340 -122.56089 11326 ft 332 kts 139°
2026-05-07 05:07 37.77567 -122.54216 11157 ft 327 kts 139°
2026-05-07 05:07 37.75893 -122.52446 11125 ft 310 kts 139°
2026-05-07 05:07 37.74279 -122.50742 11057 ft 291 kts 139°
2026-05-07 05:08 37.72724 -122.49093 10977 ft 292 kts 139°
2026-05-07 05:08 37.71148 -122.47414 10985 ft 300 kts 139°
2026-05-07 05:08 37.69553 -122.45717 10976 ft 301 kts 139°
2026-05-07 05:08 37.67945 -122.44008 10974 ft 299 kts 139°
2026-05-07 05:09 37.66361 -122.42323 10977 ft 299 kts 139°
2026-05-07 05:09 37.64753 -122.40616 10982 ft 299 kts 139°
2026-05-07 05:09 37.63175 -122.38941 10980 ft 299 kts 139°
2026-05-07 05:09 37.61552 -122.37279 10974 ft 299 kts 145°
2026-05-07 05:10 37.59716 -122.36000 10538 ft 310 kts 153°
2026-05-07 05:10 37.57775 -122.34792 10108 ft 305 kts 153°
2026-05-07 05:10 37.55930 -122.33637 10096 ft 288 kts 153°
2026-05-07 05:10 37.54157 -122.32531 9831 ft 283 kts 153°
2026-05-07 05:11 37.52388 -122.31428 9456 ft 283 kts 153°
2026-05-07 05:11 37.50612 -122.30324 9102 ft 281 kts 153°
2026-05-07 05:11 37.48887 -122.29240 8730 ft 280 kts 149°
2026-05-07 05:11 37.47436 -122.27663 8328 ft 277 kts 123°
2026-05-07 05:12 37.46697 -122.25451 7954 ft 272 kts 101°
2026-05-07 05:12 37.46337 -122.23157 7750 ft 264 kts 99°
2026-05-07 05:12 37.45988 -122.20898 7506 ft 260 kts 99°
2026-05-07 05:12 37.45697 -122.18675 7271 ft 252 kts 90°
2026-05-07 05:13 37.46019 -122.16598 7261 ft 231 kts 58°
2026-05-07 05:13 37.47077 -122.15225 7241 ft 213 kts 25°
2026-05-07 05:13 37.48476 -122.14867 6979 ft 210 kts 351°
2026-05-07 05:13 37.49848 -122.15477 6733 ft 208 kts 336°
2026-05-07 05:14 37.51190 -122.16159 6491 ft 207 kts 341°
2026-05-07 05:14 37.52554 -122.16737 6163 ft 205 kts 342°
2026-05-07 05:14 37.53795 -122.17559 5692 ft 205 kts 312°
2026-05-07 05:14 37.54485 -122.19119 5216 ft 205 kts 295°
2026-05-07 05:15 37.55062 -122.20675 5052 ft 190 kts 299°
2026-05-07 05:15 37.55667 -122.22176 4513 ft 197 kts 299°
2026-05-07 05:15 37.56305 -122.23727 3911 ft 205 kts 299°
2026-05-07 05:15 37.57032 -122.25288 3458 ft 206 kts 314°
2026-05-07 05:16 37.58231 -122.26183 3208 ft 200 kts 349°
2026-05-07 05:16 37.59576 -122.25982 2973 ft 198 kts 24°
2026-05-07 05:16 37.60609 -122.24860 2728 ft 199 kts 57°
2026-05-07 05:16 37.60918 -122.23180 2488 ft 201 kts 96°
2026-05-07 05:17 37.60384 -122.21600 2252 ft 200 kts 134°
2026-05-07 05:17 37.59229 -122.20676 2019 ft 196 kts 166°
2026-05-07 05:17 37.57909 -122.20754 1782 ft 189 kts 208°
2026-05-07 05:17 37.56988 -122.21825 1526 ft 179 kts 250°
2026-05-07 05:18 37.56796 -122.23290 1527 ft 160 kts 271°
2026-05-07 05:18 37.56781 -122.24709 1530 ft 165 kts 284°
2026-05-07 05:18 37.57242 -122.25967 1631 ft 152 kts 301°
2026-05-07 05:18 37.57729 -122.27108 1536 ft 144 kts 298°
2026-05-07 05:19 37.58189 -122.28217 1346 ft 139 kts 298°
2026-05-07 05:19 37.58640 -122.29273 1126 ft 137 kts 299°
2026-05-07 05:19 37.59076 -122.30257 1006 ft 117 kts 300°
2026-05-07 05:19 37.59465 -122.31192 790 ft 125 kts 297°
2026-05-07 05:20 37.59844 -122.32119 655 ft 117 kts 298°
2026-05-07 05:20 37.60237 -122.33064 529 ft 120 kts 297°
2026-05-07 05:20 37.60618 -122.33985 391 ft 118 kts 297°
2026-05-07 05:20 37.61007 -122.34899 252 ft 118 kts 297°
2026-05-07 05:21 37.61395 -122.35818 58 ft 116 kts 297°
2026-05-07 05:21 37.61940 -122.37117 20 ft 46 kts 298°
2026-05-07 05:21 37.62078 -122.37449 23 ft 37 kts 298°
2026-05-07 05:22 37.62139 -122.37677 26 ft 21 kts 249°
2026-05-07 05:22 37.62073 -122.37783 28 ft 13 kts 227°
2026-05-07 05:22 37.62012 -122.37867 30 ft 12 kts 229°
2026-05-07 05:22 37.61958 -122.37945 31 ft 10 kts 229°
2026-05-07 05:23 37.61916 -122.38018 32 ft 9 kts 248°
2026-05-07 05:23 37.61921 -122.38096 33 ft 7 kts 302°
2026-05-07 05:23 37.61946 -122.38152 33 ft 7 kts 299°
2026-05-07 05:23 37.61963 -122.38206 33 ft 3 kts 250°
2026-05-07 05:24 37.61903 -122.38239 34 ft 9 kts 198°
2026-05-07 05:24 37.61863 -122.38235 34 ft 3 kts 140°
2026-05-07 05:24 37.61841 -122.38211 34 ft 3 kts 140°
2026-05-07 05:24 37.61834 -122.38203 34 ft 0 kts 139°